Theta_e
320 322 327 328 327 330 333 333 331 332 331 333 331 323 321 327 326 326 326 326 329 330 326 317 312 310 308 306 307 307 308 310
320 319 324 325 329 330 331 332 332 332 333 329 329 328 329 326 324 325 326 330 327 323 319 314 309 307 306 304 305 303 305 311
320 322 323 324 326 329 331 332 331 330 332 330 329 329 324 323 328 330 329 328 322 321 319 313 307 305 305 301 301 302 302 308
323 323 324 325 329 329 332 331 330 329 326 323 328 324 324 326 325 325 324 320 318 318 316 315 307 307 304 305 305 302 305 309
324 324 326 329 328 330 331 331 329 327 325 326 328 323 322 326 327 322 320 318 317 316 314 315 309 303 303 303 306 305 305 305
325 324 326 326 328 330 330 330 328 327 326 327 324 322 322 324 320 318 318 316 316 314 314 313 310 307 303 302 304 305 304 304
327 328 332 332 330 329 329 324 323 328 328 326 322 319 316 317 317 315 316 316 315 314 315 313 311 309 303 302 302 303 303 303
328 331 329 331 327 327 323 324 324 324 325 326 320 317 316 315 315 316 314 314 315 316 313 313 313 310 302 301 301 302 299 300
327 330 326 327 323 320 319 325 323 323 325 320 318 315 314 316 315 315 314 313 313 313 314 313 312 312 303 301 301 301 300 299
332 330 328 328 326 327 322 321 323 323 318 317 316 315 315 317 315 314 314 313 312 310 310 312 311 306 302 300 300 301 300 297
332 330 329 324 328 324 318 319 319 316 316 314 314 313 314 313 312 312 312 313 312 311 308 307 306 307 302 301 300 299 300 298
328 322 327 322 322 322 319 319 317 315 310 310 311 310 309 312 313 312 312 311 308 310 305 304 303 304 303 302 300 298 300 300
328 326 324 323 324 320 317 316 314 311 310 311 310 311 310 310 310 311 311 311 309 306 304 303 302 302 304 301 299 298 297 297
326 325 323 322 320 319 316 315 315 311 311 310 310 310 311 312 310 311 306 304 303 299 300 303 305 303 300 296 296 295 294 293
326 324 324 321 314 314 316 316 314 311 308 310 312 310 310 310 309 308 308 308 301 299 297 297 296 300 297 296 296 293 292 293
325 323 320 318 317 316 316 312 311 310 310 308 309 309 309 309 308 307 309 309 308 309 302 296 296 293 293 294 294 296 302 301
323 321 321 320 319 317 312 311 310 309 310 311 311 312 311 309 307 308 308 308 309 309 312 305 303 296 294 293 296 300 301 301
320 320 323 322 316 313 313 311 311 311 311 307 304 310 311 310 310 308 308 308 308 310 312 311 310 302 303 304 304 305 304 304
323 323 323 319 314 315 317 314 314 312 311 310 306 308 309 309 307 308 308 308 308 308 310 305 289 305 306 304 307 308 308 308
324 323 322 322 319 318 317 316 313 312 311 309 309 309 309 310 310 310 309 309 308 307 308 303 290 304 307 308 309 309 310 309
Wind_Speed
4 5 8 7 5 7 8 7 7 9 5 9 11 10 7 8 6 5 4 4 2 1 4 8 6 6 6 6 6 6 6 6
5 3 7 8 8 6 6 7 7 8 8 7 9 10 10 8 7 7 5 4 3 6 7 7 6 6 5 6 6 7 7 6
5 6 7 8 7 7 7 7 4 4 6 6 8 8 8 8 6 6 6 5 5 7 7 7 6 6 4 5 6 6 6 7
7 4 7 8 8 7 6 5 7 4 3 4 8 7 6 6 6 6 7 7 5 6 4 6 7 4 5 2 3 5 6 6
7 7 7 6 6 5 5 4 5 5 1 4 4 5 4 6 7 7 6 6 5 4 2 5 6 5 4 3 6 4 6 6
7 7 2 2 5 1 5 6 2 5 3 5 6 6 6 6 6 7 6 4 5 3 1 4 7 6 9 6 5 4 6 7
4 5 19 19 13 12 14 14 22 16 11 9 5 5 6 5 5 5 4 4 2 3 3 5 5 7 11 7 1 4 5 6
7 10 12 7 4 6 6 8 6 12 12 6 1 5 7 6 5 3 2 2 2 2 3 5 7 5 9 8 2 2 4 4
5 7 5 7 5 4 6 8 5 4 7 10 4 4 5 2 3 1 1 0 2 3 5 7 6 5 7 9 6 2 3 4
9 9 8 5 6 8 7 6 3 4 6 3 2 5 2 3 4 1 0 2 3 5 5 7 1 4 8 8 7 8 4 3
11 9 8 7 9 7 6 3 6 3 3 2 1 2 0 2 4 3 2 4 4 6 3 3 1 3 4 10 10 8 6 3
4 6 8 4 4 3 6 4 2 4 2 3 4 1 2 2 2 2 2 4 3 4 3 4 4 4 5 5 4 3 5 4
4 6 6 7 6 5 3 1 2 3 3 4 2 3 4 4 4 5 4 5 6 5 5 5 5 5 6 8 7 3 4 4
5 4 5 4 3 3 3 1 3 3 3 3 3 3 4 4 4 5 9 14 13 13 13 9 6 11 10 12 11 9 8 4
6 3 2 2 2 1 4 4 3 3 3 5 4 4 4 4 4 4 5 7 14 16 16 17 16 16 13 9 5 11 11 3
6 4 3 2 3 5 3 3 3 4 5 8 5 5 5 5 5 5 5 5 5 5 8 10 7 1 6 2 4 3 8 6
2 2 4 5 6 6 2 1 2 5 5 5 5 5 5 6 5 5 5 5 4 3 2 4 6 8 9 11 11 4 5 7
5 5 6 3 0 1 3 4 6 5 6 10 9 5 7 6 6 6 4 2 3 2 4 3 2 2 3 4 6 6 5 7
4 6 5 1 3 2 4 4 4 4 4 5 8 5 5 5 4 0 3 4 3 4 4 3 5 4 4 3 3 3 6 10
6 5 5 2 5 5 4 4 4 4 4 5 5 5 5 3 4 4 4 5 6 5 3 1 5 4 5 3 6 8 8 6
Wind_Direction
158 182 165 177 174 152 168 167 173 195 169 173 165 182 202 226 199 199 210 232 298 125 73 110 103 77 52 31 24 357 344 326
238 253 168 173 174 169 165 166 169 195 155 161 165 184 208 208 201 202 204 127 80 84 116 114 105 90 66 32 9 347 334 322
278 252 189 182 169 176 171 159 154 111 158 170 186 199 188 193 192 162 137 121 102 95 123 124 116 90 63 31 1 335 320 311
35 290 230 184 170 183 179 155 144 78 117 167 189 192 207 181 147 121 108 106 95 86 123 150 125 96 103 23 310 325 314 303
1 340 317 186 191 142 107 186 130 102 303 269 236 168 101 130 134 119 115 121 113 109 73 93 128 145 173 267 321 337 324 318
328 351 313 87 48 103 3 95 128 126 249 342 40 78 95 131 130 134 132 125 118 123 261 159 161 194 200 225 317 325 316 314
318 6 44 31 2 50 59 51 356 347 66 9 315 65 67 100 108 115 112 118 139 174 230 240 212 212 208 195 358 315 312 325
18 113 108 116 108 97 87 82 16 52 5 231 319 74 70 67 75 85 88 104 201 199 268 250 245 231 179 188 198 281 314 314
73 90 88 137 146 152 47 102 157 112 151 262 110 91 84 104 127 85 101 1 313 289 268 278 273 252 178 187 215 235 269 296
66 83 91 136 146 94 109 118 222 218 224 189 73 102 104 137 152 166 259 274 276 281 280 285 341 130 159 203 211 217 257 259
53 75 72 67 77 91 104 205 195 170 51 331 282 107 81 133 160 212 248 261 255 263 272 300 217 181 204 202 208 232 275 304
98 76 81 82 76 173 189 195 183 187 187 338 335 282 275 286 238 228 233 258 272 255 232 236 238 201 203 218 223 273 306 311
70 102 115 151 173 189 162 169 282 312 322 322 325 320 297 282 258 238 238 233 198 218 232 223 228 245 236 204 193 232 241 235
73 107 128 162 193 160 174 265 283 310 339 332 318 333 319 287 270 280 248 237 246 235 235 212 239 225 198 199 207 226 243 220
16 52 76 105 111 319 291 302 51 6 329 316 313 321 300 292 289 280 280 290 249 249 248 246 234 243 216 213 18 351 318 146
64 50 9 308 307 292 302 87 25 327 308 296 288 280 270 274 273 274 270 262 266 276 261 253 292 84 133 147 137 314 290 285
121 267 274 270 261 279 124 65 305 288 289 279 268 268 264 258 263 262 257 267 316 348 26 332 276 240 204 171 166 209 252 265
183 238 248 305 136 206 287 276 264 267 266 265 262 271 272 270 266 268 298 50 294 280 275 276 273 256 247 218 209 221 230 243
265 255 279 86 269 286 286 298 279 258 269 280 278 291 275 265 286 229 231 250 269 268 229 202 259 251 264 227 252 227 244 256
18 13 359 14 296 278 279 309 318 304 294 283 282 277 287 260 264 258 296 319 309 313 309 235 241 265 268 260 260 263 266 277